Orbital Elements at Epoch 2459200.5 (2020-Dec-17.0) TDB
Reference: JPL 11 (heliocentric ecliptic J2000)
Element | Value | Uncertainty (1-sigma) | Units |
e | .05418969871700198 | 6.1571e-08 | |
a | 2.569000492998446 | 2.1437e-08 | au |
q | 2.42978713027903 | 1.5669e-07 | au |
i | 3.404410562754235 | 6.2326e-06 | deg |
node | 127.2093826849555 | 9.6644e-05 | deg |
peri | 209.3299565300389 | 0.00010791 | deg |
M | 180.954439698075 | 4.9094e-05 | deg |
tp | 2459948.507175555459 (2023-Jan-04.00717556) | 0.00020849 | TDB |
period | 1503.989167594401 4.12 | 1.8825e-05 5.154e-08 | d yr |
n | .2393634261181631 | 2.996e-09 | deg/d |
Q | 2.708213855717861 | 2.2598e-08 | au |
|
| | Orbit Determination Parameters
Additional Information
|